Wind_Speed
44 45 45 46 45 44 43 43 42 42 42 41 41 39 37 36 35 34 33 31 30 29 28 27 27 26 26 26 26 27 28 28 25 21 20 20 19 19 17 15 13 12
45 45 45 45 45 44 44 43 41 41 41 41 40 39 38 36 34 34 33 31 31 31 30 29 28 27 27 28 30 31 32 29 24 21 21 21 21 20 17 16 14 12
45 45 44 45 44 44 44 43 41 41 39 39 40 39 37 37 35 33 33 32 32 31 30 30 29 28 28 28 30 32 32 28 25 23 23 23 22 20 18 16 14 13
45 45 44 44 44 43 44 43 42 41 39 38 40 39 36 36 35 33 33 33 31 30 32 32 30 30 30 28 26 26 27 27 26 25 25 25 23 21 19 17 15 13
45 44 43 43 42 42 43 44 43 42 39 38 39 38 35 35 35 34 34 34 32 31 32 33 33 33 32 27 24 24 26 27 27 27 27 25 23 21 19 17 15 13
46 45 44 42 41 40 42 43 42 40 39 38 39 37 35 35 35 35 34 34 34 32 32 33 34 35 33 28 26 27 28 28 28 28 28 26 23 21 19 17 15 13
47 47 46 43 39 38 40 41 40 38 38 38 37 36 35 36 36 35 34 34 34 34 33 33 34 35 32 28 28 29 28 28 29 29 28 25 23 21 19 17 15 13
47 47 46 43 39 38 39 39 38 38 38 36 35 35 35 36 35 35 34 34 34 35 34 32 33 33 29 26 29 30 29 30 30 29 28 25 24 22 20 18 16 14
44 44 43 42 39 38 38 38 39 39 37 34 34 34 35 34 35 35 34 35 36 35 32 32 33 31 27 26 30 31 31 32 31 29 27 26 24 22 20 18 16 14
38 37 38 38 37 37 37 37 38 37 36 34 34 34 34 34 35 35 34 36 37 34 31 32 35 31 27 26 31 33 32 31 31 29 27 26 24 22 19 18 16 14
31 32 33 35 36 37 36 36 37 36 35 34 34 34 34 35 35 34 35 37 37 33 30 33 35 33 30 28 32 34 32 31 31 29 28 26 24 22 20 18 16 14
27 28 30 32 33 34 34 35 36 35 34 34 34 34 34 35 35 35 36 37 35 31 29 32 33 32 31 31 33 34 32 32 31 29 28 26 24 22 21 18 16 14
25 26 27 29 30 31 31 32 33 34 34 34 34 34 34 34 34 35 36 36 33 30 30 31 29 27 28 32 34 34 33 32 31 29 28 26 24 22 20 18 16 14
26 26 27 27 27 28 29 30 31 32 32 32 33 34 33 33 33 34 37 36 30 28 32 32 26 24 27 34 35 33 33 32 31 29 28 26 24 22 20 18 16 14
26 27 28 28 28 28 28 28 29 29 30 31 31 32 32 33 34 36 39 36 28 27 34 34 26 24 28 34 35 33 33 32 31 30 28 26 24 22 20 19 16 15
24 26 28 28 29 28 27 27 27 27 28 29 31 32 32 32 35 39 39 33 26 28 35 33 24 25 29 34 34 32 33 32 31 30 28 25 24 22 20 19 16 15
22 24 26 28 28 28 28 27 27 26 27 28 30 32 32 32 36 38 34 28 24 27 33 32 26 27 31 34 34 32 32 32 31 29 27 25 24 22 20 18 16 15
20 22 24 26 27 28 28 27 27 28 28 28 29 29 30 33 36 34 29 26 25 27 32 32 29 30 34 35 34 33 32 31 30 28 27 26 24 22 20 18 17 15
18 20 21 23 24 24 26 26 27 27 27 28 29 30 30 32 33 31 27 26 28 30 31 29 28 32 35 35 33 33 32 31 29 27 26 25 23 21 20 18 17 16
16 17 18 18 19 19 21 22 23 24 24 26 27 28 28 29 30 29 28 28 29 31 30 27 28 33 36 35 34 34 33 32 30 28 26 24 23 21 20 18 17 16
14 14 14 15 18 19 21 22 22 22 24 24 25 27 28 29 30 30 29 28 29 29 28 27 29 34 36 36 35 34 34 33 31 29 26 25 23 22 20 19 17 16
13 13 14 15 17 19 21 22 23 24 25 23 23 27 29 29 30 29 26 27 28 29 28 28 31 35 37 37 36 36 35 34 31 29 27 25 24 22 21 20 18 16
13 14 15 16 17 18 20 21 22 23 24 22 22 25 27 29 29 28 26 28 29 29 29 29 32 36 38 37 37 36 35 33 31 30 28 26 24 23 21 20 18 16
14 15 16 17 19 20 21 21 21 22 23 23 24 25 27 29 29 28 28 29 29 29 29 30 34 37 38 38 37 36 34 33 31 30 28 26 25 23 22 20 18 16
15 16 17 19 20 22 23 24 24 24 25 26 27 27 29 30 30 30 30 30 30 30 30 32 35 37 38 38 37 36 34 33 31 30 28 27 25 24 22 21 19 16
15 16 18 20 21 23 24 26 26 27 27 27 27 28 30 31 32 31 31 31 31 32 33 35 37 38 38 37 36 36 35 33 32 30 28 26 25 24 23 22 20 17
Wind_Direction
242 243 243 244 244 243 242 243 243 242 243 245 246 243 238 236 235 235 237 236 236 240 242 243 243 242 240 237 234 233 235 239 239 235 230 223 209 198 196 198 200 202
243 244 244 243 242 241 241 241 242 243 243 244 244 241 237 234 233 235 238 235 234 238 241 243 244 240 236 237 237 236 237 236 234 230 223 210 199 197 198 199 202 203
243 244 244 243 242 241 241 241 241 242 243 242 241 240 236 232 230 232 238 238 235 236 240 243 243 239 239 241 240 239 237 233 229 223 211 201 198 199 199 201 203 204
243 243 243 243 243 242 241 241 241 242 241 240 241 240 235 232 229 228 233 238 238 235 236 240 240 239 242 245 241 237 229 221 217 210 202 199 199 199 200 202 203 205
243 242 241 241 241 240 240 241 241 242 240 238 241 240 234 230 228 227 229 233 238 238 234 235 236 237 243 247 239 228 216 209 205 200 198 199 199 200 202 203 204 206
242 240 240 240 238 236 239 241 242 241 239 238 241 240 234 230 228 229 229 229 234 237 234 234 235 237 244 244 231 219 209 202 199 197 198 199 200 203 203 204 206 206
241 240 239 238 234 233 237 241 242 240 239 239 242 240 235 230 229 229 230 230 232 235 235 236 235 236 243 239 225 216 206 199 198 197 198 199 202 204 204 205 207 206
242 240 238 236 234 233 236 240 241 241 242 243 243 239 234 231 230 229 230 232 233 232 235 237 234 237 242 234 220 213 204 199 198 197 199 200 203 204 205 207 207 207
244 242 240 239 238 237 238 240 241 243 244 243 241 237 233 231 230 228 229 231 230 230 235 235 232 236 241 230 216 208 201 198 197 198 200 202 205 206 206 207 207 209
248 246 244 243 242 242 242 241 243 244 243 241 238 234 231 230 229 228 228 228 228 232 236 230 226 234 242 230 212 203 199 198 198 199 202 204 206 207 207 208 209 212
247 246 245 245 244 244 242 241 241 241 240 237 234 232 230 229 228 228 227 226 230 236 233 224 224 234 241 229 210 201 199 199 199 201 203 205 207 207 207 208 210 215
247 246 245 245 244 242 241 240 239 238 236 233 231 230 229 229 230 229 225 226 233 235 227 225 231 237 237 225 208 200 199 199 201 203 204 206 207 207 207 209 212 217
249 248 247 246 245 243 241 240 238 236 234 231 229 228 228 230 230 228 227 230 235 234 227 227 234 240 233 216 205 200 200 200 202 204 206 207 209 208 208 210 214 218
249 248 247 245 244 243 240 238 237 235 232 231 229 227 228 231 231 229 230 231 232 232 227 222 228 240 228 209 202 202 202 202 204 205 207 209 209 209 209 212 215 219
252 249 246 244 242 239 237 235 234 232 232 231 229 228 229 231 232 230 228 226 227 230 224 217 224 240 227 208 203 203 203 204 206 206 208 210 210 210 211 213 216 219
253 251 247 243 240 236 233 231 230 231 232 230 229 229 229 230 233 229 223 221 227 230 222 218 227 238 225 209 205 205 206 207 207 208 209 210 211 212 213 214 216 219
251 250 248 244 241 237 233 229 227 229 229 230 233 232 230 232 232 225 219 221 229 229 225 226 235 237 222 209 206 207 209 210 211 210 210 210 212 214 215 216 216 218
250 247 245 243 241 238 235 230 226 225 225 228 231 230 233 236 229 219 217 224 227 226 225 228 235 232 218 207 206 208 210 213 214 213 212 212 213 213 215 216 217 218
249 243 240 240 238 235 234 230 227 225 223 224 227 229 231 231 224 218 220 224 224 227 229 230 230 223 213 207 207 208 209 212 213 213 214 214 215 216 216 216 217 218
250 241 236 233 229 230 230 227 223 222 222 224 227 226 226 228 225 221 220 221 225 230 232 232 227 218 211 207 207 208 210 211 211 212 214 214 215 217 216 217 218 218
251 242 232 223 220 224 226 222 219 219 220 225 225 223 228 232 226 218 217 223 228 228 228 230 225 217 210 207 207 209 210 211 210 210 212 213 215 216 216 217 217 216
251 242 230 217 216 220 220 219 221 220 218 221 224 225 226 223 215 215 224 229 228 227 228 229 223 214 210 208 208 210 211 212 211 211 212 214 215 216 217 216 216 215
247 241 229 217 213 216 218 218 221 220 217 219 224 223 218 214 216 225 233 231 229 232 232 227 218 212 209 209 210 212 213 213 213 212 213 215 215 217 217 215 215 214
243 239 232 224 218 217 220 221 220 220 220 225 229 228 223 223 227 232 233 232 235 238 234 226 216 211 211 211 212 214 215 214 214 214 215 216 216 217 216 214 214 213
240 238 234 230 225 221 221 222 222 223 227 230 231 230 227 229 232 235 237 238 237 234 228 221 214 212 213 213 214 215 216 215 216 216 216 217 217 217 215 214 213 214
238 238 236 233 230 227 226 226 226 227 229 229 229 228 230 234 238 240 240 237 232 226 220 216 213 214 215 215 215 217 217 216 217 217 217 218 218 218 217 215 214 216
Height
1505 1506 1507 1508 1509 1510 1511 1512 1514 1515 1517 1519 1521 1523 1526 1528 1529 1531 1533 1535 1536 1537 1538 1539 1540 1541 1542 1543 1545 1545 1546 1547 1549 1551 1552 1553 1554 1555 1557 1557 1558 1559
1501 1502 1503 1504 1505 1506 1507 1508 1509 1511 1513 1514 1516 1518 1521 1523 1525 1526 1528 1530 1532 1533 1534 1536 1536 1538 1539 1540 1541 1541 1542 1544 1546 1548 1549 1550 1552 1554 1555 1556 1556 1557
1497 1498 1499 1500 1501 1502 1503 1504 1506 1507 1509 1510 1511 1513 1516 1519 1521 1522 1524 1525 1527 1529 1531 1532 1533 1534 1535 1536 1536 1537 1538 1541 1543 1545 1547 1548 1550 1551 1552 1553 1554 1555
1493 1494 1496 1497 1498 1499 1500 1501 1502 1503 1504 1505 1506 1509 1512 1514 1516 1518 1520 1521 1523 1526 1527 1528 1529 1530 1531 1531 1532 1533 1535 1538 1540 1542 1544 1546 1548 1549 1550 1551 1552 1553
1489 1490 1491 1493 1494 1495 1496 1496 1497 1499 1501 1501 1502 1505 1508 1510 1512 1514 1515 1517 1519 1521 1523 1525 1526 1526 1527 1528 1530 1531 1532 1534 1537 1539 1542 1544 1546 1547 1548 1549 1550 1551
1484 1485 1486 1488 1490 1491 1491 1492 1494 1495 1497 1498 1499 1502 1505 1506 1508 1510 1511 1514 1516 1517 1519 1521 1522 1523 1524 1526 1527 1528 1530 1532 1534 1537 1539 1541 1543 1545 1546 1547 1548 1549
1479 1480 1481 1483 1485 1487 1487 1488 1491 1492 1493 1495 1496 1499 1502 1503 1505 1507 1508 1511 1513 1514 1516 1518 1519 1520 1521 1523 1524 1526 1528 1530 1532 1535 1537 1539 1541 1542 1543 1545 1546 1547
1473 1475 1477 1479 1481 1483 1484 1486 1487 1489 1490 1492 1495 1497 1498 1500 1502 1503 1505 1507 1509 1511 1513 1514 1516 1518 1519 1520 1522 1524 1526 1528 1530 1533 1535 1537 1538 1540 1541 1542 1544 1544
1470 1471 1474 1476 1478 1480 1481 1482 1484 1485 1488 1490 1492 1494 1496 1498 1499 1500 1502 1504 1506 1508 1509 1511 1513 1514 1516 1518 1520 1522 1524 1526 1528 1530 1532 1534 1536 1537 1539 1540 1541 1542
1467 1469 1471 1472 1474 1476 1478 1479 1481 1483 1485 1488 1490 1491 1493 1495 1496 1497 1500 1501 1503 1505 1507 1509 1510 1512 1514 1516 1518 1519 1522 1524 1526 1528 1530 1532 1534 1535 1537 1538 1539 1540
1465 1466 1468 1469 1471 1473 1474 1476 1478 1480 1483 1484 1486 1488 1490 1492 1493 1494 1496 1498 1500 1502 1504 1507 1508 1510 1512 1514 1516 1517 1520 1522 1524 1526 1528 1530 1532 1533 1534 1536 1537 1537
1462 1464 1465 1467 1468 1470 1471 1473 1475 1477 1479 1481 1483 1485 1487 1489 1490 1492 1494 1496 1498 1500 1502 1505 1507 1508 1510 1512 1514 1515 1518 1520 1522 1524 1526 1528 1530 1531 1532 1534 1535 1535
1459 1461 1462 1464 1466 1467 1469 1470 1472 1474 1475 1477 1480 1482 1484 1486 1488 1490 1492 1494 1496 1498 1500 1503 1504 1506 1507 1509 1512 1514 1516 1518 1520 1523 1525 1526 1528 1529 1530 1532 1532 1533
1456 1457 1458 1460 1462 1463 1465 1467 1468 1470 1472 1475 1477 1479 1481 1484 1486 1488 1490 1492 1494 1496 1498 1500 1502 1504 1505 1507 1509 1512 1514 1516 1518 1521 1523 1524 1526 1527 1528 1529 1530 1531
1453 1454 1455 1457 1458 1459 1461 1463 1465 1468 1470 1472 1474 1476 1479 1481 1483 1485 1487 1488 1491 1494 1496 1498 1500 1502 1504 1505 1507 1510 1512 1515 1517 1519 1521 1522 1524 1525 1526 1527 1528 1529
1450 1451 1452 1453 1454 1456 1458 1460 1462 1465 1467 1470 1472 1474 1476 1479 1480 1482 1483 1485 1488 1491 1494 1496 1497 1500 1502 1504 1506 1508 1511 1513 1515 1517 1518 1520 1522 1523 1524 1525 1526 1527
1447 1448 1449 1450 1452 1453 1455 1457 1460 1462 1465 1467 1469 1471 1473 1476 1477 1479 1481 1484 1485 1488 1491 1493 1495 1498 1500 1502 1504 1506 1509 1511 1513 1514 1516 1518 1519 1521 1522 1523 1523 1524
1445 1446 1447 1448 1450 1451 1453 1455 1457 1459 1462 1464 1466 1469 1471 1473 1475 1477 1479 1482 1483 1486 1489 1491 1493 1495 1497 1499 1501 1504 1507 1509 1511 1513 1514 1516 1517 1518 1520 1520 1521 1522
1443 1443 1444 1446 1448 1450 1451 1452 1454 1456 1459 1462 1464 1466 1468 1470 1473 1475 1477 1480 1482 1484 1486 1488 1491 1493 1495 1497 1499 1502 1504 1507 1509 1510 1512 1514 1515 1516 1517 1518 1519 1520
1441 1441 1442 1445 1446 1449 1450 1451 1453 1455 1457 1459 1461 1464 1466 1468 1471 1473 1475 1478 1480 1482 1484 1486 1488 1490 1492 1495 1497 1500 1502 1504 1506 1508 1509 1511 1513 1514 1515 1516 1517 1517
1439 1439 1441 1443 1445 1448 1449 1451 1452 1453 1455 1457 1459 1462 1464 1466 1469 1471 1474 1476 1478 1480 1482 1483 1486 1488 1490 1493 1495 1497 1500 1501 1503 1505 1507 1509 1510 1512 1513 1513 1514 1515
1437 1437 1439 1441 1443 1446 1448 1450 1451 1452 1454 1456 1458 1460 1462 1464 1467 1469 1472 1474 1475 1477 1479 1481 1483 1485 1488 1490 1492 1494 1497 1499 1501 1503 1505 1506 1508 1509 1510 1511 1512 1513
1435 1435 1436 1439 1441 1443 1446 1448 1450 1452 1454 1456 1457 1459 1460 1462 1465 1467 1469 1471 1473 1474 1476 1478 1480 1483 1485 1488 1490 1492 1494 1496 1498 1500 1502 1504 1505 1506 1507 1508 1509 1510
1433 1434 1435 1437 1439 1441 1444 1446 1448 1451 1453 1455 1456 1458 1460 1462 1464 1466 1467 1469 1470 1472 1474 1476 1478 1481 1483 1485 1487 1490 1492 1494 1496 1498 1500 1501 1502 1503 1504 1505 1506 1507
1432 1433 1434 1435 1437 1440 1442 1445 1447 1449 1451 1453 1454 1456 1458 1460 1462 1463 1465 1466 1468 1470 1472 1474 1476 1478 1481 1483 1485 1487 1489 1491 1493 1495 1497 1498 1499 1501 1502 1503 1504 1504
1430 1431 1433 1434 1436 1438 1441 1443 1445 1447 1449 1451 1453 1454 1456 1458 1459 1461 1462 1464 1465 1467 1468 1471 1474 1476 1478 1480 1483 1485 1486 1488 1490 1492 1494 1495 1497 1498 1499 1500 1501 1501